Hourly Data Report for November 27, 2020

VICTORIA UNIVERSITY CS
BRITISH COLUMBIA
Current Station Operator: ECCC - MSC

48°27'25.200" N
123°18'16.600" W
60.10 m
1018598
71783
WYJ

Download Data

Hourly Data (November 2020)
Hourly Data Report for November 27, 2020
TIME
LST
Temp Definition
°C
Dew Point Definition
°C
Rel Hum Definition
%
Precip. Amount Definition
mm

Wind Dir Definition
10's deg

Wind Spd Definition
km/h
Visibility Definition
km
Stn Press Definition
kPa
Hmdx Definition


Wind Chill Definition


Weather Definition


00:00 7.6 6.9 95 0.0 14 5   101.92     LegendNANA
01:00 7.6 7.0 96 0.0 16 6   101.88     LegendNANA
02:00 7.3 6.6 95 0.0 15 7   101.83     LegendNANA
03:00 7.3 6.7 96 0.0 15 7   101.83     LegendNANA
04:00 7.0 6.5 96 0.0 15 6   101.76     LegendNANA
05:00 6.9 6.4 97 0.0 16 4   101.72     LegendNANA
06:00 6.8 6.4 97 0.0 14 3   101.70     LegendNANA
07:00 6.9 6.3 96 0.0 14 4   101.65     LegendNANA
08:00 7.1 6.3 95 0.0 15 6   101.63     LegendNANA
09:00 7.3 6.5 95 0.0 13 2   101.64     LegendNANA
10:00 8.0 6.7 91 0.0 12 3   101.60     LegendNANA
11:00 8.5 7.0 90 0.0 12 1   101.55     LegendNANA
12:00 9.0 6.9 87 0.0 11 2   101.47     LegendNANA
13:00 9.0 7.2 88 0.0 11 3   101.40     LegendNANA
14:00 9.3 7.4 88 0.0 11 2   101.30     LegendNANA
15:00 8.9 7.3 90 0.0 14 3   101.18     LegendNANA
16:00 8.7 7.6 93 0.0 16 5   101.10     LegendNANA
17:00 8.0 6.1 88 0.0 16 5   100.97     LegendNANA
18:00 8.4 6.6 88 0.0 16 6   100.85     LegendNANA
19:00 9.0 6.4 84 0.0 21 3   100.81     LegendNANA
20:00 8.0 7.9 99 1.1 10 3   100.92     LegendNANA
21:00 8.1 6.9 92 1.2 26 9   101.07     LegendNANA
22:00 7.9 6.1 88 0.0 24 10   101.19     LegendNANA
23:00 7.5 7.0 96 0.0 25 9   101.30     LegendNANA

Notes on Data Quality.

Legend

  • E = Estimated
  • M = Missing
  • NA = Not Available*
  • [empty] = Indicates an unobserved value
Date modified: